Location: Newark
(28.9833°N, 10.0667°W)
Time: 05:02:41
(UTC+00:00)

Hubble Space Telescope - Visible Passes

Search period start: 08 December 2019 00:00
Search period end: 18 December 2019 00:00
Orbit: 536 x 540 km, 28.5° (Epoch: 07 December)

Date Brightness Start Highest point End Pass type
(mag) Time Alt. Az. Time Alt. Az. Time Alt. Az.
11 Dec 3.8 05:44:49 10° SSE 05:45:44 11° SSE 05:46:40 10° SE visible
12 Dec 3.5 05:32:51 10° S 05:35:03 14° SSE 05:37:15 10° ESE visible
13 Dec 3.1 05:22:55 15° S 05:24:22 18° SSE 05:27:12 10° ESE visible
14 Dec 2.8 05:13:35 22° SSE 05:13:41 22° SSE 05:16:57 10° ESE visible
14 Dec 1.3 06:50:31 10° WSW 06:54:36 60° SSE 06:58:41 10° E visible
15 Dec 2.9 05:04:06 24° SE 05:04:06 24° SE 05:06:35 10° E visible
15 Dec 1.0 06:39:52 10° WSW 06:43:59 68° S 06:48:06 10° E visible
16 Dec 3.2 04:54:29 21° ESE 04:54:29 21° ESE 04:56:08 10° E visible
16 Dec 0.9 06:29:50 14° WSW 06:33:23 75° S 06:37:31 10° E visible
17 Dec 3.7 04:44:45 15° E 04:44:45 15° E 04:45:38 10° E visible
17 Dec 0.8 06:20:07 21° W 06:22:48 81° S 06:26:57 10° E visible
